Date String (YYYY-MM-DD hh:mm:ss) UTC,Instrument flags,absolute air pressure of the measurement (hPa),sample flow rate (lpm),inlet stack bypass flow (lpm),air temperature of the measurement (°C),ambient temperature measured by the external sensor (°C),aerosol sample conditioner tube jacket temperature (°C),OPC LED temperature (°C),internal box temperature (°C),relative humidity of the measurement (%),span deviation,mass concentration of particles derived from Lorenz-Mie calculation of OPC scattering (μg/m³),mass concentration of particles derived from Lorenz-Mie calculation of OPC scattering (μg/m³),mass concentration of particles derived from Lorenz-Mie calculation of OPC scattering (μg/m³)
DateTimeUTC,F1_M11,P_M11,Q1_M11,Q2_M11,T1_M11,T2_M11,T3_M11,T4_M11,T5_M11,U1_M11,ZSPAN_M11,X2_M11,X0_M11,X1_M11
2024-05-31 13:00:00,SystemResetWarning,0833.4,5.00,000.00,030.0,029.1,000.0,038.5,031.8,023.3,0000.0,0003.35,0010.11,0002.48
2024-05-31 13:01:00,SystemResetWarning,0833.4,4.99,000.00,030.0,029.1,000.0,038.5,031.8,023.4,0000.0,0003.36,0009.60,0002.47
2024-05-31 13:02:00,SystemResetWarning,0833.4,5.00,000.00,030.0,029.1,000.0,038.5,031.7,023.4,0000.0,0003.39,0009.60,0002.46
2024-05-31 13:03:00,SystemResetWarning,0833.4,5.00,000.00,030.0,029.1,000.0,038.5,031.8,023.4,0000.0,0003.38,0008.74,0002.46
2024-05-31 13:04:00,SystemResetWarning,0833.4,5.00,000.00,030.0,029.1,000.0,038.5,031.8,023.3,0000.0,0003.37,0008.64,0002.49
2024-05-31 13:05:00,SystemResetWarning,0833.4,5.00,000.00,029.9,029.1,000.0,038.5,031.7,023.3,0000.0,0003.40,0008.28,0002.50
2024-05-31 13:06:00,SystemResetWarning,0833.4,5.01,000.00,029.9,029.1,000.0,038.5,031.7,023.3,0000.0,0003.45,0008.69,0002.52
2024-05-31 13:07:00,SystemResetWarning,0833.4,5.00,000.00,029.9,029.1,000.0,038.5,031.7,023.3,0000.0,0003.48,0008.83,0002.53
2024-05-31 13:08:00,SystemResetWarning,0833.4,5.00,000.00,029.9,029.1,000.0,038.5,031.7,023.4,0000.0,0003.51,0008.95,0002.54
2024-05-31 13:09:00,SystemResetWarning,0833.4,5.00,000.00,029.9,029.1,000.0,038.4,031.7,023.3,0000.0,0003.52,0008.51,0002.58
2024-05-31 13:10:00,SystemResetWarning,0833.4,5.00,000.00,029.9,029.1,000.0,038.4,031.7,023.3,0000.0,0003.53,0008.47,0002.60
2024-05-31 13:11:00,SystemResetWarning,0833.4,5.00,000.00,029.9,029.1,000.0,038.4,031.7,023.3,0000.0,0003.54,0009.62,0002.62
2024-05-31 13:12:00,SystemResetWarning,0833.5,5.00,000.00,029.9,029.1,000.0,038.4,031.7,023.4,0000.0,0003.53,0009.94,0002.65
2024-05-31 13:13:00,SystemResetWarning,0833.4,5.00,000.00,029.9,029.1,000.0,038.4,031.7,023.4,0000.0,0003.49,0009.96,0002.68
2024-05-31 13:14:00,SystemResetWarning,0833.4,5.00,000.00,029.9,029.1,000.0,038.4,031.7,023.5,0000.0,0003.49,0010.28,0002.69
2024-05-31 13:15:00,SystemResetWarning,0833.4,5.00,000.00,029.9,029.0,000.0,038.4,031.7,023.4,0000.0,0003.48,0010.31,0002.71
2024-05-31 13:16:00,SystemResetWarning,0833.4,5.00,000.00,029.9,029.0,000.0,038.4,031.7,023.5,0000.0,0003.48,0009.84,0002.74
2024-05-31 13:17:00,SystemResetWarning,0833.4,5.01,000.00,029.9,029.0,000.0,038.4,031.7,023.6,0000.0,0003.47,0009.55,0002.78
2024-05-31 13:18:00,SystemResetWarning,0833.4,5.01,000.00,029.9,029.0,000.0,038.4,031.7,023.6,0000.0,0003.46,0009.76,0002.81
2024-05-31 13:19:00,SystemResetWarning,0833.4,4.99,000.00,029.9,029.0,000.0,038.4,031.7,023.5,0000.0,0003.45,0009.86,0002.84
2024-05-31 13:20:00,SystemResetWarning,0833.4,5.00,000.00,029.9,029.0,000.0,038.4,031.7,023.5,0000.0,0003.46,0010.31,0002.85
2024-05-31 13:21:00,SystemResetWarning,0833.4,5.00,000.00,029.9,029.0,000.0,038.4,031.7,023.4,0000.0,0003.45,0010.15,0002.86
2024-05-31 13:22:00,SystemResetWarning,0833.4,5.00,000.00,029.9,029.0,000.0,038.4,031.7,023.4,0000.0,0003.51,0009.09,0002.88
2024-05-31 13:23:00,SystemResetWarning,0833.5,5.00,000.00,029.9,029.0,000.0,038.4,031.7,023.4,0000.0,0003.56,0008.77,0002.90
2024-05-31 13:24:00,SystemResetWarning,0833.4,5.00,000.00,029.9,029.0,000.0,038.4,031.7,023.5,0000.0,0003.57,0008.67,0002.92
2024-05-31 13:25:00,SystemResetWarning,0833.5,5.01,000.00,029.9,029.0,000.0,038.4,031.7,023.7,0000.0,0003.59,0008.33,0002.94
2024-05-31 13:26:00,SystemResetWarning,0833.5,5.01,000.00,029.9,029.0,000.0,038.4,031.7,023.8,0000.0,0003.64,0008.32,0002.96
2024-05-31 13:27:00,SystemResetWarning,0833.5,5.00,000.00,029.8,029.0,000.0,038.4,031.6,023.7,0000.0,0003.66,0008.54,0002.97
2024-05-31 13:28:00,SystemResetWarning,0833.6,5.00,000.00,029.8,029.0,000.0,038.4,031.6,023.6,0000.0,0003.66,0008.47,0002.97
2024-05-31 13:29:00,SystemResetWarning,0833.6,5.00,000.00,029.8,029.0,000.0,038.4,031.6,023.5,0000.0,0003.69,0008.47,0002.99
2024-05-31 13:30:00,SystemResetWarning,0833.6,4.99,000.00,029.8,029.0,000.0,038.4,031.6,023.5,0000.0,0003.71,0009.04,0003.01
2024-05-31 13:31:00,SystemResetWarning,0833.6,4.99,000.00,029.8,029.0,000.0,038.4,031.6,023.4,0000.0,0003.71,0008.76,0003.02
2024-05-31 13:32:00,SystemResetWarning,0833.7,5.00,000.00,029.8,029.0,000.0,038.4,031.6,023.5,0000.0,0003.72,0008.78,0003.06
2024-05-31 13:33:00,SystemResetWarning,0833.7,5.00,000.00,029.8,029.0,000.0,038.3,031.6,023.6,0000.0,0003.67,0008.56,0003.08
2024-05-31 13:34:00,SystemResetWarning,0833.7,5.02,000.00,029.8,029.0,000.0,038.3,031.6,023.6,0000.0,0003.65,0008.44,0003.09
2024-05-31 13:35:00,SystemResetWarning,0833.7,5.00,000.00,029.8,028.9,000.0,038.3,031.6,023.6,0000.0,0003.67,0008.73,0003.11
2024-05-31 13:36:00,SystemResetWarning,0833.7,4.99,000.00,029.8,028.9,000.0,038.3,031.6,023.6,0000.0,0003.66,0008.81,0003.13
2024-05-31 13:37:00,SystemResetWarning,0833.7,5.00,000.00,029.8,028.9,000.0,038.3,031.6,023.6,0000.0,0003.64,0008.95,0003.13
2024-05-31 13:38:00,SystemResetWarning,0833.7,5.02,000.00,029.8,028.9,000.0,038.3,031.6,023.5,0000.0,0003.66,0008.91,0003.15
2024-05-31 13:39:00,SystemResetWarning,0833.7,4.99,000.00,029.8,028.9,000.0,038.3,031.6,023.6,0000.0,0003.65,0008.74,0003.15
2024-05-31 13:40:00,SystemResetWarning,0833.7,4.99,000.00,029.8,028.9,000.0,038.3,031.6,023.5,0000.0,0003.64,0008.48,0003.17
2024-05-31 13:41:00,SystemResetWarning,0833.7,4.99,000.00,029.8,028.9,000.0,038.3,031.6,023.5,0000.0,0003.68,0007.92,0003.18
2024-05-31 13:42:00,SystemResetWarning,0833.7,5.00,000.00,029.8,028.9,000.0,038.3,031.6,023.5,0000.0,0003.69,0007.63,0003.18
2024-05-31 13:43:00,SystemResetWarning,0833.7,5.01,000.00,029.8,028.9,000.0,038.3,031.6,023.5,0000.0,0003.69,0007.61,0003.18
2024-05-31 13:44:00,SystemResetWarning,0833.6,5.01,000.00,029.8,028.9,000.0,038.3,031.6,023.4,0000.0,0003.72,0007.81,0003.18
2024-05-31 13:45:00,SystemResetWarning,0833.7,5.00,000.00,029.8,028.9,000.0,038.3,031.6,023.4,0000.0,0003.78,0008.54,0003.20
2024-05-31 13:46:00,SystemResetWarning,0833.7,4.99,000.00,029.8,028.9,000.0,038.3,031.6,023.5,0000.0,0003.78,0009.03,0003.20
2024-05-31 13:47:00,SystemResetWarning,0833.7,5.00,000.00,029.8,028.9,000.0,038.3,031.6,023.6,0000.0,0003.85,0008.90,0003.22
2024-05-31 13:48:00,SystemResetWarning,0833.7,5.00,000.00,029.8,028.9,000.0,038.3,031.6,023.5,0000.0,0003.88,0009.02,0003.22
2024-05-31 13:49:00,SystemResetWarning,0833.7,5.01,000.00,029.8,028.9,000.0,038.3,031.6,023.5,0000.0,0003.88,0008.90,0003.23
2024-05-31 13:50:00,SystemResetWarning,0833.8,5.00,000.00,029.8,028.9,000.0,038.3,031.6,023.6,0000.0,0003.93,0009.01,0003.25
2024-05-31 13:51:00,SystemResetWarning,0833.7,4.99,000.00,029.8,028.9,000.0,038.3,031.6,023.6,0000.0,0003.98,0009.39,0003.25
2024-05-31 13:52:00,SystemResetWarning,0833.7,4.99,000.00,029.8,028.9,000.0,038.3,031.6,023.5,0000.0,0003.99,0009.80,0003.25
2024-05-31 13:53:00,SystemResetWarning,0833.7,5.01,000.00,029.8,028.9,000.0,038.3,031.6,023.6,0000.0,0004.03,0009.84,0003.27
2024-05-31 13:54:00,SystemResetWarning,0833.7,5.01,000.00,029.7,028.9,000.0,038.3,031.5,023.5,0000.0,0004.05,0009.94,0003.28
2024-05-31 13:55:00,SystemResetWarning,0833.7,4.99,000.00,029.7,028.9,000.0,038.3,031.6,023.5,0000.0,0004.03,0009.86,0003.29
2024-05-31 13:56:00,SystemResetWarning,0833.8,4.99,000.00,029.7,028.9,000.0,038.3,031.5,023.6,0000.0,0003.98,0009.34,0003.29
2024-05-31 13:57:00,SystemResetWarning,0833.8,5.01,000.00,029.7,028.9,000.0,038.3,031.5,023.7,0000.0,0003.98,0008.53,0003.28
2024-05-31 13:58:00,SystemResetWarning,0833.8,5.00,000.00,029.7,028.9,000.0,038.3,031.6,023.6,0000.0,0003.99,0008.79,0003.28
2024-05-31 13:59:00,SystemResetWarning,0833.8,5.00,000.00,029.7,028.9,000.0,038.3,031.5,023.6,0000.0,0003.94,0008.58,0003.29
